This is the latest recevied weather packets stored in our database for station/object IK2ILW-4. If no packets are shown the sender has not sent any weather packets the latest 10 day(s).
| Time | Temp. | Humidity | Pressure | Rain* | Wind** | Luminosity | Snow |
|---|---|---|---|---|---|---|---|
| 1777828066 | 13.89° C | 46% | 1019.9 hPa | 0 mm | - | 118 W/m² | - |
| 1777827764 | 13.89° C | 46% | 1019.9 hPa | 0 mm | - | 135 W/m² | - |
| 1777827460 | 13.89° C | 45% | 1020 hPa | 0 mm | - | 158 W/m² | - |
| 1777827156 | 13.89° C | 47% | 1020 hPa | 0 mm | - | 153 W/m² | - |
| 1777826855 | 13.89° C | 47% | 1020 hPa | 0 mm | - | 165 W/m² | - |
| 1777826552 | 13.89° C | 48% | 1019.2 hPa | 0 mm | - | 162 W/m² | - |
| 1777826271 | 13.33° C | 49% | 1019.2 hPa | 0 mm | - | 165 W/m² | - |
| 1777825953 | 13.33° C | 47% | 1019.2 hPa | 0 mm | - | 155 W/m² | - |
| 1777825654 | 13.33° C | 48% | 1020.3 hPa | 0 mm | - | 142 W/m² | - |
| 1777825355 | 13.89° C | 49% | 1020.3 hPa | 0 mm | - | 144 W/m² | - |
| 1777825056 | 13.89° C | 47% | 1020.3 hPa | 0 mm | - | 148 W/m² | - |
| 1777824757 | 13.89° C | 47% | 1020.3 hPa | 0 mm | - | 158 W/m² | - |
| 1777824456 | 13.89° C | 47% | 1020.3 hPa | 0 mm | - | 174 W/m² | - |
| 1777824153 | 13.89° C | 48% | 1020.3 hPa | 0 mm | - | 190 W/m² | - |
| 1777823872 | 13.89° C | 48% | 1020.3 hPa | 0 mm | - | 188 W/m² | - |
| 1777823568 | 13.89° C | 48% | 1020.3 hPa | 0 mm | - | 185 W/m² | - |
| 1777823267 | 13.89° C | 48% | 1020.3 hPa | 0 mm | - | 190 W/m² | - |
| 1777822964 | 13.89° C | 48% | 1020.5 hPa | 0 mm | - | 204 W/m² | - |
| 1777822664 | 13.89° C | 47% | 1020.5 hPa | 0 mm | - | 216 W/m² | - |
| 1777822362 | 13.89° C | 47% | 1020.5 hPa | 0 mm | - | 197 W/m² | - |
| 1777822057 | 13.89° C | 49% | 1020.7 hPa | 0 mm | - | 181 W/m² | - |
| 1777821758 | 14.44° C | 46% | 1020.7 hPa | 0 mm | - | 211 W/m² | - |
| 1777821458 | 14.44° C | 46% | 1020.7 hPa | 0 mm | - | 250 W/m² | - |
| 1777821157 | 13.89° C | 47% | 1020 hPa | 0 mm | - | 239 W/m² | - |
| 1777820872 | 13.89° C | 46% | 1020 hPa | 0 mm | - | 202 W/m² | - |
* Rain since midnight (hover to see other rain measurements)
** Current wind speed in m/s (hover to see current wind gust speed)